[[{"header":{"parameterUnit":"m.s-1","parameterCategory":1,"la1":30.2992,"la2":30.254,"lo1":-89.0895,"lo2":-89.0443,"dy":0.0025,"dx":0.0025,"nx":19,"ny":19,"refTime":"2026-03-06T03:00:00:Z","depth":0,"parameterNumber":2,"parameterNumberName":"U-component_of_WINDS"},"data":[0,0,0,-4.9188,-4.9191,-4.9331,-4.9332,-4.9525,-4.9527,0,0,0,0,0,0,0,0,0,0,0,-4.9155,-4.9156,-4.9188,-4.9191,-4.9331,-4.9332,-4.9525,-4.9527,0,0,0,0,0,0,0,0,0,0,0,-4.9154,-4.9156,-4.9158,-4.9192,-4.9331,-4.9332,-4.9525,-4.9414,0,0,0,0,0,0,0,0,0,0,-4.9275,-4.9252,-4.9155,-4.9158,-4.9193,-4.9331,-4.9332,-4.9408,-4.9421,-4.9468,0,-4.9512,0,-4.9523,-4.9541,-4.9542,0,0,0,-4.9185,-4.9242,-4.9272,-4.9158,-4.9194,-4.9331,-4.9266,-4.9415,-4.9429,-4.9485,-4.9514,-4.9521,-4.9526,-4.9542,-4.9543,-4.9838,-4.9839,0,0,-4.9177,-4.9184,-4.9263,-4.9282,-4.9261,-4.9262,-4.9271,-4.9423,-4.9456,-4.9515,-4.9525,-4.9529,-4.9544,-4.9545,-4.9836,-4.9838,0,0,0,-4.9159,-4.9179,-4.9205,-4.9275,-4.9299,-4.9266,-4.9276,-4.9449,-4.9458,-4.9527,-4.9532,-4.9545,-4.9548,-4.9834,-4.9837,-4.9925,0,0,0,-4.9154,-4.9168,-4.9202,-4.9208,-4.9296,-4.9376,-4.9299,-4.9447,-4.9464,-4.9531,-4.9545,-4.955,-4.9833,-4.9836,-4.9919,-4.9965,0,0,0,-4.9143,-4.9167,-4.919,-4.9208,-4.9268,-4.9373,-4.939,-4.945,-4.9467,-4.9542,-4.955,-4.9831,-4.9835,-4.9913,-4.9955,-5.0044,0,0,0,-4.9131,-4.9265,-4.9191,-4.9343,-4.9267,-4.9428,-4.9389,-4.9508,-4.9583,-4.9546,-4.9833,-4.9837,-4.9911,-4.995,-5.0038,-5.0119,-5.0153,0,0,-4.9303,-4.9286,-4.9375,-4.9313,-4.9488,-4.9405,-4.9594,-4.9656,-4.9657,-4.9778,-4.9785,-4.9921,-4.9955,-5.0043,-5.0348,-5.0376,0,0,0,-4.9431,-4.9495,-4.954,-4.9613,-4.9665,-4.9714,-4.9747,-4.9771,-4.9873,-4.972,-4.9978,-4.9998,-5.0049,-5.0087,-5.0111,-5.0154,-4.9855,-4.9855,-4.9854,-4.9681,-4.9678,-4.9825,-4.9839,-4.9911,-4.9946,-5.0003,-5.0041,-5.0015,-5.0077,-5.0111,-5.0297,-5.0342,-5.0359,-5.0405,-5.0155,-5.0156,-5.0156,-5.0156,-4.9932,-5.0021,-4.9988,-5.0118,-5.0114,-5.0224,-5.0265,-5.0243,-5.0345,-5.027,-5.0315,-5.0231,-5.039,-5.0429,-5.0163,-5.0162,-5.0161,-5.016,-5.016,-5.0093,-5.0135,-5.0164,-5.0271,-5.0354,-5.0365,-5.0466,-5.0459,-5.0453,-5.0498,-5.0534,-5.0532,-5.0529,-5.0516,-5.0517,-5.0517,-5.0518,-5.0518,-5.0519,-5.0247,-5.0277,-5.0362,-5.0433,-5.048,-5.0542,-5.0583,-5.0629,-5.0679,-5.0666,-5.0666,-5.0634,-5.0407,-5.0349,-5.0529,-5.0527,-5.0526,-5.0525,-5.0524,-5.0498,-5.0442,-5.0573,-5.0621,-5.0705,-5.0789,-5.0781,-5.0878,-5.0916,-5.0966,-5.0927,-5.076,-5.0741,-5.0722,-5.0674,-5.0927,-5.0927,-5.0927,-5.0927,-5.0632,-5.0624,-5.0758,-5.0836,-5.0911,-5.0919,-5.107,-5.1105,-5.1131,-5.1155,-5.1118,-5.1055,-5.1036,-5.1028,-5.1003,-5.0957,-5.1277,-5.1277,-5.1278,-5.0786,-5.0785,-5.0913,-5.094,-5.1006,-5.1064,-5.1206,-5.1297,-5.1316,-5.1292,-5.1173,-5.1159,-5.1056,-5.1023,-5.0991,-5.0952,-5.0869,0,0]},{"header":{"parameterUnit":"m.s-1","parameterCategory":1,"la1":30.2992,"la2":30.254,"lo1":-89.0895,"lo2":-89.0443,"dy":0.0025,"dx":0.0025,"nx":19,"ny":19,"refTime":"2026-03-06T03:00:00:Z","depth":0,"parameterNumber":3,"parameterNumberName":"V-component_of_WINDS"},"data":[0,0,0,1.4287,1.4288,1.4335,1.4335,1.4382,1.4382,0,0,0,0,0,0,0,0,0,0,0,1.4265,1.4265,1.4287,1.4288,1.4335,1.4335,1.4382,1.4382,0,0,0,0,0,0,0,0,0,0,0,1.4265,1.4265,1.4265,1.4288,1.4335,1.4335,1.4381,1.4351,0,0,0,0,0,0,0,0,0,0,1.4307,1.4279,1.4265,1.4265,1.4288,1.4335,1.4335,1.4349,1.4353,1.4355,0,1.4355,0,1.4369,1.4384,1.4384,0,0,0,1.4293,1.4277,1.4297,1.4265,1.4289,1.4334,1.4315,1.4351,1.4355,1.4359,1.4356,1.4358,1.437,1.4384,1.4385,1.4383,1.4383,0,0,1.4291,1.4269,1.4294,1.4299,1.4291,1.4314,1.4316,1.4354,1.4348,1.4356,1.4359,1.4371,1.4385,1.4385,1.4383,1.4383,0,0,0,1.428,1.4267,1.4286,1.4297,1.4306,1.4315,1.4318,1.4347,1.4355,1.436,1.4371,1.4385,1.4385,1.4383,1.4383,1.435,0,0,0,1.4278,1.426,1.4285,1.4272,1.4305,1.4327,1.431,1.4352,1.4357,1.4371,1.4385,1.4386,1.4384,1.4383,1.4352,1.4337,0,0,0,1.4265,1.4259,1.4263,1.427,1.429,1.4327,1.4338,1.4354,1.4364,1.4384,1.4386,1.4384,1.4383,1.4353,1.434,1.4332,0,0,0,1.4243,1.423,1.4262,1.4252,1.429,1.4306,1.4338,1.4351,1.4364,1.4385,1.4384,1.4383,1.4353,1.4341,1.4334,1.4322,1.4315,0,0,1.4214,1.4226,1.4222,1.4252,1.4258,1.4301,1.4302,1.4334,1.4355,1.4372,1.4373,1.4351,1.434,1.4332,1.4284,1.4278,0,0,0,1.4206,1.4203,1.4209,1.4222,1.4248,1.427,1.4305,1.4317,1.4334,1.436,1.4347,1.4341,1.4337,1.4333,1.4328,1.4327,1.438,1.438,1.438,1.4131,1.4162,1.4159,1.4197,1.4209,1.4248,1.4261,1.4284,1.4308,1.4306,1.431,1.4277,1.4271,1.4268,1.4267,1.4307,1.4307,1.4307,1.4307,1.4092,1.4094,1.4132,1.4142,1.4176,1.4185,1.4222,1.4241,1.4254,1.4275,1.4273,1.4294,1.4261,1.4262,1.4304,1.4305,1.4305,1.4305,1.4305,1.4047,1.4054,1.4072,1.4097,1.4113,1.4152,1.4165,1.4194,1.4221,1.4219,1.4229,1.423,1.4235,1.4222,1.4222,1.4222,1.4222,1.4222,1.4222,1.3993,1.4015,1.4023,1.4053,1.4068,1.4091,1.4132,1.4147,1.4171,1.4192,1.4192,1.4218,1.4252,1.426,1.422,1.422,1.4221,1.4221,1.4221,1.3942,1.396,1.3972,1.3987,1.4027,1.4043,1.4082,1.4111,1.4127,1.4133,1.4162,1.4182,1.4195,1.4199,1.4206,1.4154,1.4154,1.4154,1.4154,1.3905,1.3916,1.3937,1.396,1.3985,1.4023,1.4037,1.4071,1.4108,1.4121,1.4133,1.4145,1.4148,1.416,1.4165,1.4172,1.4112,1.4112,1.4112,1.3876,1.3892,1.3898,1.3937,1.3972,1.4001,1.4017,1.4042,1.4087,1.4111,1.4132,1.4134,1.4154,1.4159,1.4181,1.4187,1.4201,0,0]}]]